User: anonymous   Login
Location: Kerentrech
(47.7567°N, 3.3595°W)
Time: 07:36:50
(UTC+00:00)
Language:

Cosmos 1023 Rocket - Orbit

View from above orbital plane
View from above orbital plane
View from above satellite
View from above satellite

Ground track
Ground track

The orbit data is extracted from the following two-line orbital elements,

1 10962U 78063B   20156.88975723 +.00000067 +00000-0 +28848-4 0  9992
2 10962 074.0806 018.1689 0025152 359.5995 000.5136 14.41194926201805
Epoch (UTC): 04 June 2020 21:21:15
Eccentricity: 0.0025152
inclination: 74.0806°
perigee height: 736 km
apogee height: 772 km
right ascension of ascending node: 18.1689°
argument of perigee: 359.5995°
revolutions per day: 14.41194926
mean anomaly at epoch: 0.5136°
orbit number at epoch: 20180

The dashed part of the orbit path shows where the satellite is in the earth's shadow,  

DLR